Paganella, Italy

7:30 PM CET on March 25, 2017 (GMT +0100)
Paganella

Weather History for LIVP - March, 2013

Change the Weather History Date:

Saturday, March 30, 2013

  Actual Average Record
Temperature  
Mean Temperature 27 °F -  
Max Temperature 30 °F 35 °F 42 °F (1998)
Min Temperature 24 °F 26 °F 19 °F (1997)
Degree Days  
Heating Degree Days 38    
Moisture  
Dew Point 26 °F    
Average Humidity 93    
Maximum Humidity 100    
Minimum Humidity 86    
Precipitation  
Precipitation 0.28 in 0.05 in - ()
Sea Level Pressure  
Sea Level Pressure 29.43 in    
Wind  
Wind Speed 14 mph ()    
Max Wind Speed 37 mph    
Max Gust Speed 48 mph    
Visibility 0.0 miles    
Events Fog , Snow    
Averages and records for this station are not official NWS values.
T = Trace of Precipitation, MM = Missing Value Source: Averaged Metar Reports

Daily Weather History Graph

Daily Weather History Graph

Search for Another Location

Airport or City:

Trip Planner

Search our weather history database for the weather conditions in past years. The results will help you decide how hot, cold, wet, or windy it might be!

Date:

Astronomy

Mar. 30, 2013 Rise Set
Actual Time 5:59 AM CET 6:41 PM CET
Civil Twilight 5:29 AM CET 7:12 PM CET
Nautical Twilight 4:53 AM CET 7:48 PM CET
Astronomical Twilight 4:16 AM CET 8:25 PM CET
Moon 10:43 PM CET (3/30) 7:29 AM CET (3/30)
Length of Visible Light 13h 42m
Length of Day
12h 42m
Waning Gibbous, 88% of the Moon is Illuminated
Mar 30
Waning Gibbous
Apr 3
Last Quarter
Apr 10
New
Apr 18
First Quarter
Apr 25
Full

Hourly Weather History & Observations

Time (CET) Temp. Windchill Dew Point Humidity Pressure Visibility Wind Dir Wind Speed Gust Speed Precip Events Conditions
12:55 AM 26.6 °F 13.4 °F 24.8 °F 93% 29.53 in 0.1 mi SW 18.4 mph - N/A Fog Light Freezing Fog
1:00 AM 27 °F - 25 °F 90%  in 0 mi SW 18.4 mph - - Fog Heavy Fog
1:55 AM 26.6 °F 12.0 °F 24.8 °F 93% 29.53 in 0.0 mi WSW 23.0 mph - N/A Fog Light Freezing Fog
2:55 AM 26.6 °F 15.2 °F 26.6 °F 100% 29.53 in 0.0 mi SSW 13.8 mph - N/A Fog Light Freezing Fog
3:55 AM 26.6 °F 15.7 °F 24.8 °F 93% 29.53 in 0.0 mi SSW 12.7 mph - N/A Fog Light Freezing Fog
4:00 AM 27 °F - 25 °F 90%  in 0 mi SSW 12.7 mph - - Fog Heavy Fog
4:55 AM 26.6 °F 15.7 °F 26.6 °F 100% 29.50 in 0.0 mi SSW 12.7 mph - N/A Fog Light Freezing Fog
5:55 AM 26.6 °F 17.5 °F 24.8 °F 93% 29.50 in 0.0 mi SSW 9.2 mph - N/A Fog Light Freezing Fog
6:55 AM 26.6 °F 20.0 °F 24.8 °F 93% 29.50 in 0.0 mi SSE 5.8 mph - N/A Fog Light Freezing Fog
7:00 AM 27 °F - 25 °F 90%  in 0 mi SSE 5.8 mph - - Fog Heavy Fog
7:55 AM 28.4 °F 18.0 °F 26.6 °F 93% 29.50 in 0.0 mi South 12.7 mph - N/A Fog Light Freezing Fog
8:55 AM 28.4 °F 17.0 °F 26.6 °F 93% 29.50 in 0.0 mi SSW 15.0 mph - N/A Fog Light Freezing Fog
9:55 AM 28.4 °F 16.6 °F 26.6 °F 93% 29.47 in 0.1 mi SSW 16.1 mph - N/A Fog Light Freezing Fog
10:00 AM 28 °F - 27 °F 96%  in 0 mi SSW 16.1 mph - - Fog Heavy Fog
10:55 AM 28.4 °F 21.2 °F 26.6 °F 93% 29.47 in 0.1 mi South 6.9 mph - N/A Fog Light Freezing Fog
11:55 AM 30.2 °F 21.3 °F 28.4 °F 93% 29.47 in - SE 10.4 mph - N/A Fog Light Freezing Fog
12:55 PM 30.2 °F 21.9 °F 28.4 °F 93% 29.44 in - SE 9.2 mph - N/A Fog Light Freezing Fog
1:00 PM 30 °F - 29 °F 94%  in 0 mi SE 9.2 mph - - Snow Light Snow
1:55 PM 30.2 °F 25.4 °F 28.4 °F 93% 29.42 in - ENE 4.6 mph - N/A Fog Light Freezing Fog
2:55 PM 30.2 °F 23.4 °F 28.4 °F 93% 29.42 in 0.0 mi North 6.9 mph - N/A Fog , Snow Snow
3:55 PM 30.2 °F 22.6 °F 26.6 °F 86% 29.42 in 0.0 mi North 8.1 mph - N/A Fog , Snow Snow
4:00 PM 29 °F - 27 °F 89%  in 0 mi North 8.1 mph - - Snow Snow
4:55 PM 28.4 °F 19.1 °F 24.8 °F 86% 29.39 in 0.0 mi North 10.4 mph - N/A Fog , Snow Snow
5:55 PM 26.6 °F 13.8 °F 24.8 °F 93% 29.36 in - North 17.3 mph - N/A Fog Light Freezing Fog
6:55 PM 26.6 °F 13.1 °F 24.8 °F 93% 29.36 in - North 19.6 mph - N/A Fog Light Freezing Fog
7:00 PM 26 °F - 25 °F 95%  in 0 mi North 19.6 mph - - Snow Light Snow
7:55 PM 26.6 °F 11.4 °F 24.8 °F 93% 29.33 in - North 25.3 mph - N/A Fog Light Freezing Fog
8:55 PM 26.6 °F 9.3 °F 24.8 °F 93% 29.33 in 0.0 mi North 34.5 mph - N/A Fog , Snow Light Freezing Fog
9:55 PM 24.8 °F 6.4 °F 24.8 °F 100% 29.30 in 0.0 mi North 36.8 mph 48.3 mph N/A Fog , Snow Light Freezing Fog
10:00 PM 26 °F - 25 °F 94%  in 0 mi North 36.8 mph - - Fog Heavy Fog
10:55 PM 26.6 °F 10.3 °F 26.6 °F 100% 29.30 in - North 29.9 mph - N/A Fog Light Freezing Fog
11:55 PM 26.6 °F 10.0 °F 26.6 °F 100% 29.30 in - North 31.1 mph - N/A Fog Light Freezing Fog